Siloam Springs, AR

10:26 PM CDT on July 23, 2017 (GMT -0500)
Smith

Weather History for KSLG - January, 2012

Change the Weather History Date:

Monday, January 2, 2012

  Actual Average Record
Temperature  
Mean Temperature 31 °F -  
Max Temperature 39 °F 44 °F 71 °F (2004)
Min Temperature 23 °F 27 °F 3 °F (2001)
Degree Days  
Heating Degree Days 34    
Moisture  
Dew Point 9 °F    
Average Humidity 40    
Maximum Humidity 59    
Minimum Humidity 24    
Precipitation  
Precipitation 0.00 in - - ()
Sea Level Pressure  
Sea Level Pressure 30.60 in    
Wind  
Wind Speed 11 mph (NW)    
Max Wind Speed 18 mph    
Max Gust Speed 24 mph    
Visibility 10 miles    
Events      
Averages and records for this station are not official NWS values.
T = Trace of Precipitation, MM = Missing Value Source: NWS Daily Summary

Daily Weather History Graph

Daily Weather History Graph

Search for Another Location

Airport or City:

Trip Planner

Search our weather history database for the weather conditions in past years. The results will help you decide how hot, cold, wet, or windy it might be!

Date:

Astronomy

Jan. 02, 2012 Rise Set
Actual Time 7:29 AM CST 5:14 PM CST
Civil Twilight 7:00 AM CST 5:43 PM CST
Nautical Twilight 6:28 AM CST 6:15 PM CST
Astronomical Twilight 5:57 AM CST 6:46 PM CST
Moon 12:27 PM CST (1/2) 1:27 AM CST (1/2)
Length of Visible Light 10h 42m
Length of Day
9h 45m
Waxing Gibbous, 64% of the Moon is Illuminated
Jan 2
Waxing Gibbous
Jan 9
Full
Jan 16
Last Quarter
Jan 23
New
Jan 30
First Quarter

Hourly Weather History & Observations

Time (CST) Temp. Windchill Dew Point Humidity Pressure Visibility Wind Dir Wind Speed Gust Speed Precip Events Conditions
12:15 AM 33.8 °F 26.4 °F 19.4 °F 56% 30.55 in 10.0 mi NNW 9.2 mph - N/A   Clear
12:35 AM 33.8 °F 26.4 °F 17.6 °F 52% 30.55 in 10.0 mi NNW 9.2 mph - N/A   Clear
12:55 AM 33.8 °F 25.8 °F 17.6 °F 52% 30.55 in 10.0 mi NNW 10.4 mph - N/A   Clear
1:15 AM 33.8 °F 24.3 °F 17.6 °F 52% 30.55 in 10.0 mi NNW 13.8 mph - N/A   Clear
1:35 AM 33.8 °F 24.8 °F 15.8 °F 48% 30.56 in 10.0 mi NNW 12.7 mph - N/A   Clear
1:55 AM 33.8 °F 24.3 °F 12.2 °F 41% 30.57 in 10.0 mi NNW 13.8 mph 19.6 mph N/A   Clear
2:15 AM 32.0 °F 22.5 °F 12.2 °F 44% 30.57 in 10.0 mi NNW 12.7 mph - N/A   Clear
2:35 AM 30.2 °F 20.8 °F 10.4 °F 44% 30.58 in 10.0 mi NNW 11.5 mph - N/A   Clear
2:55 AM 30.2 °F 20.2 °F 10.4 °F 44% 30.58 in 10.0 mi NNW 12.7 mph - N/A   Clear
3:15 AM 30.2 °F 20.2 °F 12.2 °F 47% 30.58 in 10.0 mi NNW 12.7 mph - N/A   Clear
3:35 AM 28.4 °F 18.5 °F 12.2 °F 51% 30.59 in 10.0 mi NW 11.5 mph - N/A   Clear
3:55 AM 30.2 °F 21.9 °F 12.2 °F 47% 30.59 in 10.0 mi NW 9.2 mph - N/A   Clear
4:35 AM 28.4 °F 19.7 °F 10.4 °F 47% 30.60 in 10.0 mi NW 9.2 mph - N/A   Clear
4:55 AM 26.6 °F 16.8 °F 10.4 °F 51% 30.60 in 10.0 mi NW 10.4 mph - N/A   Clear
5:15 AM 26.6 °F 17.5 °F 10.4 °F 51% 30.60 in 10.0 mi NW 9.2 mph - N/A   Clear
5:35 AM 24.8 °F 14.6 °F 10.4 °F 54% 30.61 in 10.0 mi NW 10.4 mph - N/A   Clear
5:55 AM 26.6 °F 18.2 °F 10.4 °F 51% 30.61 in 10.0 mi NW 8.1 mph - N/A   Clear
6:15 AM 24.8 °F 17.9 °F 10.4 °F 54% 30.61 in 10.0 mi WNW 5.8 mph - N/A   Clear
6:35 AM 23.0 °F 13.9 °F 10.4 °F 59% 30.62 in 10.0 mi WNW 8.1 mph - N/A   Clear
6:55 AM 24.8 °F 15.3 °F 10.4 °F 54% 30.63 in 10.0 mi WNW 9.2 mph - N/A   Clear
7:15 AM 24.8 °F 15.3 °F 12.2 °F 59% 30.63 in 10.0 mi WNW 9.2 mph - N/A   Clear
7:35 AM 24.8 °F 16.1 °F 12.2 °F 59% 30.63 in 10.0 mi NW 8.1 mph - N/A   Clear
7:55 AM 24.8 °F 14.6 °F 12.2 °F 59% 30.64 in 10.0 mi WNW 10.4 mph - N/A   Clear
8:15 AM 26.6 °F 17.5 °F 12.2 °F 55% 30.65 in 10.0 mi NW 9.2 mph - N/A   Clear
8:35 AM 26.6 °F 15.7 °F 12.2 °F 55% 30.66 in 10.0 mi NW 12.7 mph 17.3 mph N/A   Clear
9:15 AM 30.2 °F 20.2 °F 12.2 °F 47% 30.68 in 10.0 mi NW 12.7 mph - N/A   Clear
9:35 AM 30.2 °F 18.9 °F 10.4 °F 44% 30.68 in 10.0 mi NNW 16.1 mph - N/A   Clear
10:15 AM 32.0 °F 22.5 °F 10.4 °F 41% 30.70 in 10.0 mi NW 12.7 mph - N/A   Clear
10:35 AM 33.8 °F 25.3 °F 8.6 °F 35% 30.70 in 10.0 mi NW 11.5 mph - N/A   Clear
10:55 AM 33.8 °F 25.3 °F 8.6 °F 35% 30.69 in 10.0 mi NNW 11.5 mph - N/A   Clear
11:15 AM 33.8 °F 25.3 °F 8.6 °F 35% 30.68 in 10.0 mi NW 11.5 mph 19.6 mph N/A   Clear
11:55 AM 35.6 °F 26.6 °F 8.6 °F 33% 30.66 in 10.0 mi NW 13.8 mph 18.4 mph N/A   Clear
12:15 PM 35.6 °F 26.6 °F 6.8 °F 30% 30.64 in 10.0 mi NW 13.8 mph - N/A   Clear
12:35 PM 35.6 °F 27.5 °F 6.8 °F 30% 30.63 in 10.0 mi NW 11.5 mph - N/A   Clear
12:55 PM 37.4 °F 27.8 °F 5.0 °F 26% 30.61 in 10.0 mi NW 17.3 mph 23.0 mph N/A   Clear
1:15 PM 37.4 °F 28.9 °F 6.8 °F 28% 30.60 in 10.0 mi WNW 13.8 mph - N/A   Clear
1:35 PM 37.4 °F 28.5 °F 6.8 °F 28% 30.59 in 10.0 mi NW 15.0 mph - N/A   Clear
1:55 PM 37.4 °F 28.2 °F 5.0 °F 26% 30.59 in 10.0 mi NW 16.1 mph 24.2 mph N/A   Clear
2:15 PM 37.4 °F 28.9 °F 6.8 °F 28% 30.58 in 10.0 mi WNW 13.8 mph - N/A   Clear
2:35 PM 39.2 °F 30.8 °F 6.8 °F 26% 30.57 in 10.0 mi NW 15.0 mph 21.9 mph N/A   Clear
2:55 PM 39.2 °F 30.2 °F 6.8 °F 26% 30.56 in 10.0 mi NW 17.3 mph - N/A   Clear
3:15 PM 39.2 °F 29.8 °F 6.8 °F 26% 30.57 in 10.0 mi NW 18.4 mph - N/A   Clear
3:35 PM 37.4 °F 28.9 °F 5.0 °F 26% 30.57 in 10.0 mi WNW 13.8 mph - N/A   Clear
3:55 PM 37.4 °F 27.8 °F 6.8 °F 28% 30.57 in 10.0 mi WNW 17.3 mph - N/A   Clear
4:15 PM 37.4 °F 27.8 °F 5.0 °F 26% 30.58 in 10.0 mi WNW 17.3 mph 23.0 mph N/A   Clear
4:35 PM 37.4 °F 28.5 °F 3.2 °F 24% 30.58 in 10.0 mi NW 15.0 mph - N/A   Clear
4:55 PM 35.6 °F 28.0 °F 3.2 °F 26% 30.57 in 10.0 mi WNW 10.4 mph - N/A   Clear
5:15 PM 33.8 °F 26.4 °F 3.2 °F 28% 30.56 in 10.0 mi WNW 9.2 mph - N/A   Clear
5:35 PM 30.2 °F 21.9 °F 3.2 °F 32% 30.56 in 10.0 mi WNW 9.2 mph - N/A   Clear
5:55 PM 28.4 °F 20.4 °F 5.0 °F 37% 30.56 in 10.0 mi NW 8.1 mph - N/A   Clear
6:15 PM 28.4 °F 21.2 °F 3.2 °F 34% 30.56 in 10.0 mi WNW 6.9 mph - N/A   Clear
6:35 PM 28.4 °F 22.2 °F 3.2 °F 34% 30.56 in 10.0 mi WNW 5.8 mph - N/A   Clear
7:15 PM 28.4 °F 22.2 °F 3.2 °F 34% 30.55 in 10.0 mi WNW 5.8 mph - N/A   Clear
7:35 PM 28.4 °F 23.3 °F 5.0 °F 37% 30.56 in 10.0 mi WNW 4.6 mph - N/A   Clear
7:55 PM 28.4 °F 24.6 °F 3.2 °F 34% 30.56 in 10.0 mi WNW 3.5 mph - N/A   Clear
8:15 PM 28.4 °F 24.6 °F 3.2 °F 34% 30.56 in 10.0 mi West 3.5 mph - N/A   Clear
8:35 PM 28.4 °F 24.6 °F 3.2 °F 34% 30.55 in 10.0 mi West 3.5 mph - N/A   Clear
8:55 PM 28.4 °F 24.6 °F 3.2 °F 34% 30.55 in 10.0 mi West 3.5 mph - N/A   Clear
9:15 PM 26.6 °F - 3.2 °F 37% 30.55 in 10.0 mi Calm Calm - N/A   Clear
9:35 PM 26.6 °F - 3.2 °F 37% 30.55 in 10.0 mi Calm Calm - N/A   Clear
9:55 PM 26.6 °F - 3.2 °F 37% 30.55 in 10.0 mi Calm Calm - N/A   Clear
10:15 PM 26.6 °F - 3.2 °F 37% 30.54 in 10.0 mi Calm Calm - N/A   Clear
10:55 PM 24.8 °F - 3.2 °F 40% 30.53 in 10.0 mi Calm Calm - N/A   Clear
11:15 PM 26.6 °F - 5.0 °F 40% 30.53 in 7.0 mi Calm Calm - N/A   Clear
11:35 PM 26.6 °F - 5.0 °F 40% 30.52 in 10.0 mi Calm Calm - N/A   Clear
11:55 PM 26.6 °F - 5.0 °F 40% 30.52 in 10.0 mi Calm Calm - N/A   Clear